Location: Focicchia
(42.2496°N, 9.2935°E)
Time: 02:55:37
(UTC+00:00)

CZ-2D R/B - Pass Details

Date: 07 June 2020
Orbit: 791 x 846 km, 98.7° (Epoch: 06 July)

Event Time Altitude Azimuth Distance (km) Brightness Sun altitude
Rises 02:06:22 0° 2° (N) 3,306 6.2 -14.7°
Reaches altitude 10° 02:09:00 10° 351° (N) 2,368 5.1 -14.4°
Maximum altitude 02:13:17 27° 295° (WNW) 1,498 3.4 -13.9°
Enters shadow 02:16:21 16° 249° (WSW) 1,986 3.6 -13.5°
